Observations for Trim Market St
| Time | AQI | Temp °C | Hum % | Pres Pa | CO μg/m³ | H₂S μg/m³ | NO μg/m³ | NO₂ μg/m³ | O₃ μg/m³ | SO₂ μg/m³ | PM1 μg/m³ | PM2.5 μg/m³ | PM10 μg/m³ |
|---|---|---|---|---|---|---|---|---|---|---|---|---|---|
| Tuesday 25 August 2026 | |||||||||||||
| 04:47 | 2 | 15.8 | 74 | 46,115 | 0.28 | 0 | 1.49 | 9.73 | 48.14 | 0 | 1.43 | 2.85 | 5.13 |
| 04:45 | 2 | 15.9 | 74 | 46,011 | 0.28 | 0 | 1.59 | 10.54 | 46.47 | 0 | 0.71 | 2.37 | 4.52 |
| 04:43 | 2 | 15.9 | 74 | 45,893 | 0.28 | 0 | 1.57 | 12.56 | 46.89 | 0 | 1.43 | 2.85 | 5.73 |
| 04:33 | 2 | 15.9 | 74 | 46,032 | 0.29 | 0 | 1.37 | 12.32 | 47.42 | 0 | 1.43 | 3.34 | 5.73 |
| 04:32 | 2 | 15.9 | 74 | 46,151 | 0.28 | 0 | 1.52 | 15.57 | 47.69 | 0 | 1.43 | 3.34 | 6.33 |
| 04:31 | 2 | 15.9 | 74 | 46,268 | 0.28 | 0 | 1.36 | 11.94 | 47.87 | 0 | 1.43 | 2.86 | 6.93 |
| 04:30 | 2 | 15.9 | 74 | 46,319 | 0.28 | 0 | 1.42 | 11.74 | 47.1 | 0 | 1.43 | 2.38 | 5.12 |
| 04:29 | 2 | 15.9 | 74 | 46,350 | 0.29 | 0 | 1.36 | 11.94 | 47.61 | 0 | 1.43 | 3.34 | 5.72 |
| 04:28 | 2 | 15.9 | 74 | 46,373 | 0.28 | 0 | 1.29 | 11.94 | 46.96 | 0 | 1.43 | 2.86 | 6.93 |
| 04:27 | 2 | 15.8 | 74 | 46,424 | 0.29 | 0 | 1.26 | 11.9 | 47.66 | 0 | 1.43 | 2.86 | 5.72 |
| 04:23 | 2 | 15.9 | 74 | 46,690 | 0.29 | 0 | 1.29 | 12.45 | 47.62 | 0 | 0.71 | 1.9 | 5.12 |
| 04:22 | 2 | 15.9 | 74 | 46,754 | 0.29 | 0 | 1.44 | 12.91 | 46.42 | 0 | 1.43 | 2.39 | 4.52 |
| 04:21 | 2 | 15.9 | 74 | 46,860 | 0.29 | 0 | 1.34 | 14.58 | 43.2 | 0 | 1.43 | 3.35 | 7.53 |
| 04:17 | 2 | 15.9 | 74 | 47,014 | 0.29 | 0 | 1.42 | 11.48 | 47.95 | 0 | 1.43 | 2.87 | 6.32 |
| 04:15 | 2 | 15.9 | 74 | 47,183 | 0.29 | 0 | 1.46 | 12.05 | 47.53 | 0 | 1.43 | 2.87 | 5.12 |
| 04:13 | 2 | 15.9 | 74 | 47,612 | 0.28 | 0 | 1.3 | 12.2 | 47.63 | 0 | 2.14 | 3.84 | 6.93 |
| 04:09 | 2 | 15.9 | 74 | 48,372 | 0.29 | 0 | 1.27 | 12.16 | 47.97 | 0 | 1.43 | 2.88 | 5.11 |
| 04:02 | 2 | 15.9 | 74 | 49,138 | 0.27 | 0 | 1.5 | 10.58 | 48.56 | 0 | 0.71 | 2.89 | 5.11 |
| 04:01 | 2 | 15.9 | 74 | 49,209 | 0.28 | 0 | 1.5 | 9.87 | 46.04 | 0 | 0.71 | 2.41 | 4.5 |
| 04:00 | 2 | 15.9 | 74 | 49,313 | 0.28 | 0 | 1.56 | 10.05 | 48.64 | 0 | 0.71 | 2.41 | 6.32 |